Regional Weather Roundup
Issued by NWS

Home | Current Version | Previous Version | Text Only | Print | Product List | Glossary Off
Versions: 1 2 3 4 5 6 7 8 9 10 11 12 13 14 15 16 17 18 19 20 21 22 23 24 25 26 27 28 29 30 31 32 33 34 35 36 37 38 39 40 41 42 43 44 45 46 47 48 49 50

000
ASUS45 KCYS 240110
RWRWY

WYOMING REGIONAL WEATHER ROUNDUP
NATIONAL WEATHER SERVICE CHEYENNE WY
700 PM MDT SAT SEP 23 2017

NOTE:  "FAIR" INDICATES FEW OR NO CLOUDS BELOW 12,000 FEET
WITH NO SIGNIFICANT WEATHER AND/OR OBSTRUCTIONS TO VISIBILITY.

WYZ001-240200-
YELLOWSTONE NATIONAL PARK

CITY           SKY/WX    TMP DP  RH WIND       PRES   REMARKS
LK YELLOWSTONE NOT AVBL
W YELLOWSTONE  NOT AVBL

$$
WYZ002>013-054>058-071-098>099-240200-
NORTHERN WYOMING

CITY           SKY/WX    TMP DP  RH WIND       PRES   REMARKS
JACKSON        CLOUDY    46  34  62 NE9       29.97S
CODY           CLOUDY    40  35  83 N12       30.08R WCI  33
GREYBULL       CLOUDY    45  41  86 NW9       30.03R
WORLAND        LGT RAIN  43  42  97 NW3       30.05R
SHERIDAN       CLOUDY    42  40  92 NE5       30.08R
BUFFALO        CLOUDY    39  36  89 N10       30.08R WCI  32
GILLETTE       CLOUDY    41  41 100 N14       30.04R
HULETT         CLOUDY    41  41 100 NE6       30.04R
NEWCASTLE      DRIZZLE   45  43  93 SE5       30.02R

$$
WYZ014>020-022>026-101>103-240200-
CENTRAL WYOMING

CITY           SKY/WX    TMP DP  RH WIND       PRES   REMARKS
BIG PINEY      FAIR      46  35  65 SE5       29.94R
PINEDALE       CLOUDY    48  32  53 CALM      29.95R
DUBOIS         CLOUDY    37  34  87 SE12      30.00S WCI  30
LANDER         CLOUDY    39  38  96 NE6       30.01S FOG     WCI  35
RIVERTON       LGT RAIN  40  38  93 NE9       30.02R WCI  34
CASPER         CLOUDY    39  38  96 N22G31    29.98F WCI  29
DOUGLAS        CLOUDY    45  42  89 SE10      30.00S

$$
WYZ021-027>030-104>119-240200-
SOUTHERN WYOMING

CITY           SKY/WX    TMP DP  RH WIND       PRES   REMARKS
EVANSTON       LGT RAIN  38  36  92 NW5       29.94S FOG     WCI  34
KEMMERER         N/A     43  34  70 NW12      29.94F
FORT BRIDGER   FAIR      44  37  76 N5        29.95S
ROCK SPRINGS   CLOUDY    42  37  82 NE15      29.94S
DIXON          FAIR      53  36  53 W6        29.92S
RAWLINS        MOCLDY    48  42  80 W6        29.92S
SARATOGA       FAIR      45  37  76 SE15G22   29.92F
LARAMIE        CLOUDY    43  39  86 E7        29.95F
CHEYENNE       LGT RAIN  42  40  92 NE10      30.00S FOG
TORRINGTON     LGT RAIN  45  44  97 E5        29.99F
PINE BLUFFS    RAIN      41  41 100 N7        30.01S

$$



USA.gov is the U.S. government's official web portal to all federal, state and local government web resources and services.